GFSGL_con_sbcape_072.txt.gz
CAPE
0 0 0 0 52 294 476 416 1139 2036 1507 1558 2251 2573 2527 2287 2448 3005 3273 2987 2993 2856 2511 2033 1892 1917 1659 1214 893 914 655 555 315 854 515 356 346 266 159 225 340 616 370
5 0 0 2 2 43 578 600 753 1101 1128 1297 1808 2149 2027 1999 2635 3052 3130 2776 2829 2622 1883 1790 1588 1590 1691 1349 1014 944 710 546 432 689 620 100 213 512 398 304 61 209 518
0 1 4 2 1 9 519 858 829 856 1012 1313 1664 1952 1794 1918 2647 2902 2839 2668 2675 2441 1887 1733 1687 1630 1618 1159 1058 792 647 663 703 538 663 125 302 571 256 36 49 182 97
0 1 4 4 3 1 527 997 877 868 1016 1400 1887 1961 1792 2046 2461 2622 2654 2568 2473 2047 1835 1747 1689 1507 1332 1178 981 792 676 789 636 567 558 183 263 279 241 64 23 63 70
2 1 8 7 4 2 419 1000 636 1129 1341 1825 2071 1885 1876 2234 2340 2584 2532 2518 2485 1932 1683 1480 1431 964 563 678 702 875 1224 826 578 468 386 314 327 112 413 114 9 27 25
2 6 14 10 7 1 470 876 1012 1510 2156 2393 2354 1911 2339 2130 1766 2043 2271 2542 1955 1766 1460 1428 1034 185 110 55 85 0 249 1187 953 513 1015 507 353 135 455 146 103 61 56
2 6 11 13 9 0 492 700 1447 2839 3351 3160 2912 2303 2763 2357 1291 1344 1591 2172 2015 1780 1436 1253 863 439 273 419 9 0 0 0 0 916 704 567 442 280 80 379 112 84 49
3 4 10 21 5 0 809 1090 2599 3228 3581 3529 3330 3039 2957 2099 34 459 913 1983 1768 1538 1306 1076 997 741 631 597 573 395 377 267 125 172 478 284 221 553 113 170 125 89 61
1 6 25 43 0 0 1062 2074 3116 3064 3254 3423 3001 2913 2987 794 0 0 929 1610 1325 1024 853 979 931 790 120 15 484 286 435 218 0 0 1 0 3 2 20 47 14 6 30
2 3 0 3 25 6 1505 2319 2625 2332 2655 2802 2846 2978 2521 1111 1 5 778 632 859 703 883 862 0 225 0 0 383 253 81 80 10 6 3 0 0 2 0 210 2 1 7
2 3 5 0 31 719 1501 1717 1772 2167 2205 2290 2227 2182 1420 511 0 0 72 529 539 557 610 721 438 0 2 0 0 217 144 18 1 4 5 14 23 16 8 55 0 2 3
3 5 7 15 511 1187 2001 2049 1957 1740 1236 1209 761 944 481 42 0 0 5 55 265 671 601 475 170 0 0 1 0 0 0 0 11 9 3 1 4 5 4 34 219 183 85
10 51 104 356 1189 983 1341 1133 1176 1234 914 757 907 44 66 115 2 1 0 1 3 566 481 32 0 0 0 0 2 0 0 6 6 5 6 5 11 6 7 10 46 13 14
10 5 362 695 959 735 712 718 701 905 1108 1266 347 182 406 183 17 8 1 0 0 0 0 0 0 0 0 4 0 0 10 22 14 67 24 7 13 21 10 16 47 49 21
4 137 118 651 611 206 136 180 468 903 547 373 536 670 486 555 217 58 6 92 189 6 2 3 7 6 4 5 5 18 57 48 49 70 66 47 30 25 39 72 84 66 46
4 118 196 3 3 2 2 2 0 1 5 35 95 269 259 9 0 0 0 0 0 0 7 7 11 6 4 5 32 63 48 18 48 49 34 32 16 7 12 5 3 56 42
28 85 5 14 46 41 36 3 2 1 0 1 0 0 0 0 2 2 2 0 0 0 39 7 9 7 3 52 28 36 50 30 43 41 21 14 6 5 1 40 63 64 69
0 26 35 63 128 185 81 79 96 125 14 1 0 0 0 1 2 2 0 1 1 10 23 9 7 7 7 80 44 84 60 30 33 12 18 14 12 6 10 11 50 16 4
25 52 63 173 217 300 551 506 457 269 92 0 2 0 0 1 1 1 0 12 15 22 16 9 5 8 17 14 57 76 63 45 29 20 24 30 28 7 4 10 31 2 6
26 67 63 428 502 470 378 303 223 92 1 5 8 4 1 3 5 5 9 8 15 8 5 8 7 11 101 129 73 32 41 3 19 28 24 19 4 1 18 6 12 2 8
109 137 219 266 370 300 281 222 160 144 111 24 10 1 0 15 15 11 7 16 19 6 4 7 35 108 101 65 23 15 23 47 49 35 36 33 20 7 10 12 3 10 21
193 251 359 334 287 263 255 344 225 131 69 8 6 1 0 39 36 37 17 8 15 29 14 12 34 68 94 113 37 56 53 54 34 36 27 18 11 16 19 16 18 25 34
301 198 323 207 321 2 116 178 133 69 16 6 6 0 26 39 22 3 2 4 2 1 0 0 1 1 71 115 69 55 50 53 32 19 20 13 22 43 31 6 18 19 27
477 339 277 173 181 78 3 6 2 1 6 9 4 2 3 3 1 3 4 2 1 0 0 0 0 0 0 1 1 0 3 3 19 15 17 26 26 17 19 6 4 4 1
463 360 271 16 5 7 8 8 7 8 5 1 1 0 0 0 1 2 1 0 0 0 0 0 0 0 0 0 0 0 0 2 14 0 6 0 0 0 0 0 0 0 0
489 136 1 3 3 9 7 5 3 2 1 0 0 0 0 0 0 1 1 1 0 0 1 1 1 0 0 0 0 0 0 0 0 0 0 0 0 0 0 0 0 0 0

GFSGL_con_sbcape_075.txt.gz
CAPE
1 2 0 0 0 31 205 511 1085 1767 1748 1526 1609 2749 3468 4507 4649 4518 3906 2863 2817 3431 3495 3684 3544 3693 2149 2044 1528 1356 604 640 819 1235 914 1117 804 507 486 368 502 740 497
0 0 0 6 0 89 79 124 637 1266 1560 1837 1717 1506 2624 3350 4018 3721 3453 2364 3142 3539 3483 3094 3194 2293 2887 2920 1965 2275 971 1995 895 1716 953 709 464 602 547 487 336 313 728
0 0 0 0 3 106 183 95 112 701 1396 1340 1503 1739 2386 3048 3646 3665 3159 2703 3515 3437 3228 3166 2938 2740 3041 2576 2049 1424 914 1101 864 625 1126 1097 386 876 521 470 356 402 385
0 0 0 3 2 18 59 77 193 190 1464 1220 1721 1573 2300 3030 3178 3143 2970 3464 3645 3266 3517 2940 2238 2461 2468 2263 2029 1641 1598 1501 959 1357 1274 959 534 942 608 300 31 287 150
0 0 0 5 1 1 46 127 118 330 1838 1058 1442 1951 2492 2878 2642 3178 3388 3632 3872 3555 3415 2364 2510 2040 1349 1637 1070 1752 1741 998 821 1183 921 1177 569 344 514 437 79 91 58
0 0 0 0 2 11 79 247 67 306 1990 1437 1607 1902 2619 2733 1811 2439 3149 3771 3669 3227 3048 2433 1992 559 340 237 63 10 327 1255 1178 1480 1255 836 980 721 1090 572 109 29 87
6 1 8 12 8 27 67 112 270 718 2056 2082 2405 2697 3170 3648 609 1536 2561 3831 3455 3204 2660 2569 1727 1189 732 777 50 0 0 0 23 1092 997 949 362 832 711 752 718 85 433
22 22 19 3 14 55 127 196 600 939 2000 2329 2994 3705 3748 3441 46 1265 2278 3657 3278 2689 2676 2214 1852 1550 884 637 579 403 369 437 207 245 854 870 911 1024 556 924 878 577 317
19 25 1 0 0 68 269 421 626 1326 1946 2583 3129 3234 3451 1772 6 955 2035 3071 2673 2331 1863 1648 1608 1270 528 206 782 731 727 192 0 0 0 0 3 35 154 257 554 538 123
16 17 1 8 28 209 260 228 450 965 1977 2868 3183 3050 2865 1983 1 559 2051 2069 2164 1781 1799 930 17 775 85 164 765 740 497 588 192 10 4 4 1 0 4 271 140 327 158
16 0 0 9 34 308 460 103 340 579 2247 2813 2891 3059 3270 1979 297 328 555 2031 1583 1301 978 1093 634 0 0 0 0 689 433 305 27 93 66 73 85 21 8 70 133 23 0
42 41 39 56 178 344 201 18 13 585 1790 2578 2415 2593 2723 1666 539 0 0 473 845 1079 578 768 134 2 2 0 0 0 0 0 8 8 13 29 5 55 64 181 81 15 7
64 49 47 38 44 9 16 1 10 1174 1471 1762 1927 1460 1080 1311 113 0 0 7 202 1109 728 90 1 2 1 0 2 0 0 44 26 25 9 4 1 1 2 52 146 16 10
32 69 36 4 1 36 2 1 928 1159 1221 1390 1212 857 778 936 386 470 58 63 18 0 16 0 0 0 0 2 0 0 24 47 9 65 29 25 14 11 15 83 58 116 32
33 22 36 77 0 0 22 615 1221 1092 1431 1929 1971 1442 1226 842 826 539 590 507 467 164 1 0 4 5 10 7 10 9 22 41 71 54 137 18 29 11 55 62 46 153 117
19 25 14 12 19 8 3 0 0 0 140 715 1089 1229 849 222 41 1 0 0 0 0 1 10 10 10 11 6 10 102 75 11 46 60 42 20 42 23 109 97 94 109 103
69 1 7 120 96 125 32 0 0 1 1 0 0 0 0 0 0 0 0 0 0 0 33 9 3 9 14 19 90 129 59 79 60 53 25 30 47 26 14 22 18 21 98
1 0 2 148 112 65 99 263 413 292 111 0 0 0 1 1 2 1 0 0 0 0 40 9 14 7 15 23 103 106 62 56 73 59 35 37 11 6 1 16 53 62 83
3 2 94 219 294 163 349 525 444 409 48 1 1 0 0 1 1 1 0 6 8 51 24 9 6 11 12 68 135 80 67 46 28 21 25 18 10 4 8 16 39 2 4
9 6 125 336 528 598 247 594 495 154 94 38 3 2 1 0 1 0 1 14 14 31 29 3 6 3 0 106 82 120 87 38 26 16 29 32 45 21 5 5 32 22 35
7 7 110 421 559 469 537 560 252 321 164 16 5 1 0 0 4 8 20 7 23 14 30 14 6 29 67 130 74 30 77 31 31 57 47 37 32 16 3 42 2 2 10
39 111 298 505 502 603 668 366 387 216 46 12 25 1 0 37 12 9 9 32 33 13 8 22 93 80 120 129 86 50 25 55 69 41 43 40 24 8 0 1 0 0 1
180 170 306 520 529 110 436 491 312 4 10 12 20 28 53 60 24 2 3 4 3 1 0 12 1 106 193 128 99 66 68 59 33 38 34 28 27 53 66 54 18 21 27
304 404 346 441 474 510 443 202 55 0 28 32 51 17 0 1 3 3 4 1 0 0 0 0 0 0 43 74 71 19 9 20 75 53 39 47 37 51 56 31 4 0 3
245 346 258 350 241 152 135 57 51 16 19 7 7 0 0 0 1 1 1 0 0 0 0 0 0 0 0 0 0 0 0 1 0 0 0 0 0 1 0 0 0 0 0
590 380 233 75 11 0 1 4 4 3 1 0 0 1 0 1 1 0 1 2 0 1 0 0 1 0 0 0 0 0 0 0 0 0 0 0 0 0 0 0 0 0 0

GFSGL_con_sbcape_078.txt.gz
CAPE
251 220 158 163 204 252 341 386 441 692 619 1069 843 699 321 952 3221 3089 2998 3055 3023 3229 2785 2316 2340 2746 2670 2187 1880 1743 1102 1048 843 629 1013 1132 766 524 384 317 192 383 101
9 20 110 178 34 204 204 234 296 250 340 401 658 1128 841 399 1833 3155 3184 3464 3141 3117 2617 2296 2718 2947 2928 2182 1784 1496 959 1123 749 663 864 704 692 455 394 269 214 84 276
0 0 0 32 102 17 105 133 152 165 110 185 363 951 1020 1135 591 2463 3346 3803 2997 2678 2404 2750 3049 2958 2704 1985 1958 1676 1219 1023 1171 891 803 683 471 438 555 461 291 205 205
3 0 1 0 0 0 0 0 0 0 81 145 127 525 833 1081 1392 1775 2797 3475 2846 2463 2861 3054 2840 2721 2405 2302 1745 1306 1020 922 954 680 801 707 411 625 444 237 22 26 49
1 0 0 0 0 0 0 0 0 0 0 40 141 149 1028 798 1448 1759 2583 3190 2711 2724 3148 3029 2686 2417 2192 2017 1547 1259 959 930 833 749 628 495 408 360 308 210 38 30 50
27 3 0 0 0 0 0 0 6 2 0 7 77 165 903 999 1089 1916 2949 3054 2699 2963 3166 2884 2294 1742 1084 593 224 496 944 1233 955 732 673 510 369 259 381 282 60 15 21
141 30 8 0 0 0 0 5 0 0 23 27 64 249 1028 950 1191 106 1637 2879 3048 3027 3054 2587 2011 1340 164 0 0 0 3 221 496 716 709 425 356 454 255 197 137 35 14
75 34 24 5 1 0 1 0 0 2 42 34 56 323 1115 1350 1464 163 310 2732 2776 2785 2880 2477 1902 1145 985 761 259 331 206 28 0 35 645 547 571 552 242 203 172 95 26
23 44 27 7 0 1 4 0 0 0 14 35 104 396 1185 1530 478 6 302 2568 2314 2760 2594 2362 1895 1229 759 528 604 430 448 0 1 0 0 0 0 0 70 58 114 63 74
37 35 18 1 0 0 1 0 0 12 44 137 212 587 1234 1654 0 0 2194 2472 2384 2452 2230 1791 1308 1282 48 0 883 742 605 132 1 0 0 0 0 0 4 44 62 64 28
37 19 0 0 9 11 0 0 0 12 103 113 121 575 1296 1797 0 0 1947 2400 2417 2056 1780 1010 151 93 0 15 543 777 581 296 15 3 2 20 20 0 14 59 59 27 46
0 0 4 5 2 7 0 2 3 220 254 101 18 446 1393 1253 184 0 153 1979 1803 1623 1374 1011 0 1 0 0 26 0 14 7 0 3 7 31 27 7 18 55 9 29 35
10 1 5 46 38 36 61 57 112 291 199 44 14 680 1313 1126 0 0 45 1092 1304 1173 629 24 1 2 2 1 0 0 0 0 1 3 0 1 0 0 3 18 63 23 3
45 38 26 21 38 113 85 69 150 137 78 13 4 877 1192 337 0 0 0 0 0 0 0 0 0 0 0 0 0 0 0 1 0 4 1 2 2 1 0 3 32 7 34
35 21 16 25 52 38 56 43 58 57 1 25 499 906 740 409 511 191 308 246 171 8 0 0 0 0 0 0 3 0 7 0 0 20 8 4 6 3 2 0 16 65 55
28 17 29 35 51 31 40 52 0 0 0 0 654 497 634 195 60 107 95 0 0 0 0 0 3 1 1 6 6 3 7 2 28 12 16 2 3 4 12 35 55 54 67
8 6 16 6 10 0 5 21 2 1 0 2 0 2 0 0 0 0 0 0 0 0 53 0 0 1 2 2 5 7 20 1 11 7 10 5 9 1 0 43 47 48 50
4 1 12 33 23 7 18 152 257 5 3 0 0 0 0 0 0 0 0 0 0 5 21 0 0 1 7 6 27 57 51 42 13 4 6 10 15 16 2 20 20 21 25
19 12 21 45 203 225 148 139 89 0 2 2 0 0 0 1 1 0 0 0 0 88 0 0 0 4 6 11 65 49 43 39 22 15 14 15 5 0 6 3 9 0 6
4 0 0 130 175 338 264 77 15 5 4 2 1 0 0 0 0 0 80 16 41 5 1 0 1 6 8 56 77 4 4 2 5 8 27 17 14 5 4 8 22 36 18
8 26 1 387 300 395 313 205 187 73 5 3 1 0 0 2 24 32 13 8 14 10 0 0 1 1 27 73 80 74 25 18 10 17 23 20 15 9 8 8 5 6 26
0 61 177 314 254 182 289 279 171 31 5 2 1 0 0 3 9 1 2 2 10 16 14 13 12 12 29 113 78 85 46 22 35 20 24 18 19 16 6 18 3 13 1
1 162 98 79 89 32 164 222 35 44 19 7 3 0 1 0 0 1 1 0 0 0 0 1 40 105 108 39 39 51 76 44 43 47 26 15 18 14 23 21 14 19 6
0 134 106 124 222 258 285 115 15 5 32 17 5 1 1 1 1 1 0 0 0 0 0 0 0 0 0 0 0 0 0 4 36 67 53 34 20 48 1 0 0 0 1
192 129 402 319 284 197 29 1 23 23 2 2 0 0 0 1 0 0 0 0 0 0 0 0 0 0 0 0 0 0 2 2 0 0 0 0 0 0 0 0 0 0 0
151 398 302 225 194 95 2 0 1 1 0 0 0 1 0 0 1 0 0 0 0 0 0 0 0 0 0 0 0 0 0 0 0 0 0 0 0 0 0 0 0 0 0

GFSGL_con_sbcape_084.txt.gz
CAPE
0 0 0 7 0 0 0 0 0 32 113 183 170 165 221 369 337 241 281 883 1071 1218 1013 729 761 664 921 1522 1389 1016 396 105 405 63 20 2 0 0 3 0 1 0 0
0 0 0 0 0 0 0 0 0 0 0 0 84 69 122 105 66 129 232 302 673 1313 1239 1001 1241 1575 1479 1729 1271 1007 808 145 149 164 62 15 0 0 0 0 0 0 0
0 1 0 0 0 0 0 0 0 0 0 0 0 0 0 16 56 55 88 220 279 297 1795 1626 1661 1814 1852 2191 1884 1238 419 175 10 25 67 0 0 0 0 0 0 0 0
0 0 0 0 0 0 0 0 0 0 0 0 0 0 0 0 0 0 4 0 16 234 384 1880 2240 2223 2180 2182 1761 1361 338 148 42 10 1 0 0 0 0 0 0 0 0
0 0 0 0 0 0 0 0 0 0 0 0 0 0 0 0 0 0 0 0 0 38 224 485 1597 2325 2106 1892 1780 1109 242 162 3 0 0 0 0 0 4 0 0 0 0
0 0 0 0 0 0 0 0 0 0 0 0 0 0 0 0 0 0 0 0 0 0 2 166 1096 1492 1074 877 847 670 348 166 83 0 0 0 0 0 0 0 0 0 0
0 0 0 0 0 0 0 0 0 0 0 0 0 0 0 0 0 0 0 0 0 0 0 30 559 1810 1150 1172 6 43 133 79 101 2 0 0 0 0 0 0 0 0 0
0 0 0 0 0 0 0 0 0 0 0 0 0 0 0 0 0 0 0 0 0 1 0 0 157 1049 982 918 68 142 59 5 0 0 0 0 0 0 0 0 0 0 0
0 0 0 0 0 0 0 0 0 0 0 0 0 0 0 0 0 0 0 0 0 0 0 0 172 1206 565 30 242 55 0 0 1 2 0 0 0 0 0 0 0 0 1
0 0 0 0 0 0 0 0 0 0 0 0 0 0 0 0 0 0 0 0 0 0 3 21 300 630 2 0 95 6 0 0 0 1 1 1 0 0 0 0 0 0 0
0 0 0 0 0 0 0 0 0 0 0 0 0 0 0 0 0 0 0 0 0 5 13 54 200 2 2 0 16 2 0 0 0 0 0 0 0 0 0 0 0 0 0
0 0 0 0 0 0 0 0 0 0 0 0 0 0 0 0 0 0 0 0 0 0 0 24 162 1 0 0 10 1 0 0 0 0 0 1 0 0 0 0 0 3 0
0 0 0 0 0 0 0 0 0 0 0 0 0 0 0 0 0 0 0 0 1 0 0 32 33 1 0 1 2 2 0 0 0 0 0 1 0 0 0 0 0 0 0
1 0 0 0 0 0 0 0 0 0 0 0 0 0 1 2 10 8 1 0 0 0 0 1 0 0 0 0 0 1 0 0 0 0 0 1 1 1 0 0 1 0 1
0 0 1 3 8 13 15 12 9 9 7 0 2 18 29 2 0 0 0 3 1 0 0 2 2 0 0 0 0 0 0 0 0 0 1 0 0 0 0 0 1 2 6
6 9 10 13 19 32 39 40 0 0 2 0 14 29 13 0 0 0 0 1 2 1 0 1 1 0 0 0 0 0 0 0 0 0 0 0 0 0 0 1 2 2 10
7 9 11 7 17 27 46 50 49 3 0 0 0 0 0 0 0 0 0 1 1 1 6 0 0 0 0 0 0 0 0 0 0 0 0 0 0 0 1 2 2 0 1
8 5 5 4 4 9 17 28 13 37 7 0 0 0 1 0 0 0 1 1 0 0 5 1 0 0 0 0 0 0 0 0 0 0 0 0 0 0 0 0 1 8 0
11 6 9 12 8 4 7 12 3 3 3 1 0 1 1 1 0 0 0 22 4 0 0 0 0 0 0 0 0 0 0 0 0 0 0 0 2 0 0 0 0 0 0
13 3 0 7 1 5 3 2 3 0 4 10 6 0 0 0 1 1 2 10 0 0 0 0 0 0 0 0 0 0 0 0 0 0 0 0 0 0 0 0 2 0 0
4 4 0 6 29 14 7 7 5 13 17 7 0 2 0 11 31 16 2 0 0 0 0 0 0 0 0 0 0 0 0 0 0 2 0 0 0 0 0 2 2 2 3
4 4 2 69 37 40 29 21 2 18 5 3 0 1 0 78 40 0 0 0 0 0 0 0 0 0 0 0 0 0 0 0 0 0 0 3 1 0 0 0 0 0 1
6 2 3 3 6 15 29 11 11 23 3 1 1 0 13 0 0 0 0 0 0 0 0 0 0 0 0 0 2 1 0 0 0 0 0 3 3 0 0 0 0 0 0
3 2 7 5 2 6 17 7 4 0 1 1 1 0 1 1 1 0 0 0 0 0 0 0 0 0 0 0 0 0 0 0 0 0 0 0 0 0 0 0 0 0 0
2 30 6 5 2 2 2 1 0 1 3 5 3 0 0 0 0 0 0 0 0 0 0 0 0 0 0 0 0 1 2 0 0 0 0 0 0 0 0 0 0 0 0
20 2 2 1 0 0 0 0 0 0 0 0 0 0 0 0 0 0 0 0 0 0 0 0 0 1 0 0 0 1 0 0 0 0 0 0 0 0 0 0 0 0 0

GFSGL_con_sbcape_087.txt.gz
CAPE
0 0 13 0 0 0 0 0 0 3 14 55 13 53 173 270 306 319 218 198 457 451 541 529 572 602 486 275 472 403 386 405 518 616 32 16 75 46 28 0 0 0 0
0 0 0 3 0 0 0 0 0 0 0 0 0 0 0 3 39 82 148 193 244 280 397 823 791 733 740 698 602 880 864 610 435 452 41 25 27 0 0 0 0 0 0
0 0 0 0 0 0 0 0 0 0 0 0 0 0 0 0 0 1 34 123 174 132 161 244 593 1197 879 971 1059 987 866 749 190 151 134 0 0 0 0 0 0 0 0
0 0 0 0 0 0 0 0 0 0 0 0 0 0 0 0 0 0 0 0 0 23 51 147 184 442 1188 1525 1219 1190 1267 651 194 50 21 14 0 0 0 0 0 0 0
0 0 0 0 0 0 0 0 0 0 0 0 0 0 0 0 0 0 0 0 0 0 0 10 19 19 68 206 1340 1716 1693 781 193 67 28 0 0 1 0 0 0 0 0
0 0 0 0 0 0 0 0 0 0 0 0 0 0 0 0 0 0 0 0 0 0 0 0 0 0 0 45 34 289 1836 942 189 108 51 17 0 0 0 0 0 0 0
0 0 0 0 0 0 0 0 0 0 0 0 0 0 0 0 0 0 0 0 0 0 0 0 0 0 0 21 595 40 23 180 403 108 37 7 0 0 0 0 0 0 0
0 0 0 0 0 0 0 0 0 0 0 0 0 0 0 0 0 0 0 0 0 0 0 0 0 0 0 0 152 539 183 108 0 5 36 0 0 0 0 0 0 0 0
0 0 0 0 0 0 0 0 0 0 0 0 0 0 0 0 0 0 0 0 0 0 0 0 0 0 0 0 12 575 305 33 1 1 0 0 0 0 0 0 0 0 1
0 0 0 0 0 0 0 0 0 0 0 0 0 0 0 0 0 0 0 0 0 0 0 0 0 0 0 0 0 487 146 0 1 1 0 1 1 1 0 0 0 0 0
0 0 0 0 0 0 0 0 0 0 0 0 0 0 0 0 0 0 0 0 0 0 0 0 0 4 0 2 1 174 103 1 1 0 1 0 0 1 0 0 0 0 0
0 0 0 0 0 0 0 0 0 0 0 0 0 0 0 0 0 0 0 0 0 0 0 0 1 0 0 2 1 11 2 0 0 0 0 0 0 0 1 0 0 0 0
0 0 0 0 0 0 0 0 0 0 0 0 0 0 0 0 0 0 0 0 0 0 0 0 0 0 2 1 1 1 0 0 0 0 0 0 0 0 0 0 0 0 0
0 0 0 0 0 0 0 0 0 0 0 0 0 0 0 0 0 0 0 0 1 0 0 0 0 0 0 2 0 1 0 0 0 0 0 0 0 0 1 0 1 0 0
5 3 1 1 0 0 1 0 0 0 0 0 0 0 0 0 0 0 0 0 4 7 0 1 0 0 1 0 0 1 1 0 0 0 0 1 1 1 1 0 0 0 0
4 5 6 9 9 9 7 6 0 0 0 0 0 0 0 0 0 0 0 0 3 1 0 1 1 2 1 0 1 0 1 1 0 0 0 0 0 0 0 1 0 0 0
6 10 15 9 17 23 29 30 25 6 0 0 0 0 0 0 0 0 0 2 2 1 3 9 4 3 1 5 1 0 0 0 0 0 0 0 0 0 0 1 0 2 0
12 4 13 14 12 12 18 17 16 21 26 1 0 0 0 0 0 0 2 1 0 0 12 11 7 4 0 3 1 1 1 0 0 0 0 0 0 0 0 1 1 0 0
10 9 7 9 9 6 17 32 26 13 16 32 1 1 0 1 1 1 1 1 5 12 47 0 0 0 0 1 0 0 0 0 0 0 0 0 0 0 0 0 0 0 0
14 3 1 5 6 6 9 6 21 16 6 20 2 0 0 0 0 0 1 2 18 27 0 0 0 0 0 0 0 0 0 0 0 0 0 0 0 0 0 0 0 0 0
5 5 0 1 11 5 2 5 7 9 12 1 1 0 0 1 0 2 2 12 2 0 0 0 1 0 0 0 0 0 0 0 0 0 0 0 0 0 0 0 2 0 0
6 4 4 6 1 3 3 4 5 13 15 12 11 0 1 1 1 3 5 1 1 0 0 0 0 0 0 0 0 0 0 0 0 0 0 0 0 0 0 0 0 0 3
3 3 5 23 2 8 4 1 0 11 28 9 2 2 3 30 25 0 1 0 0 0 0 0 0 0 0 0 0 0 0 0 0 0 0 2 1 0 0 0 0 0 1
2 3 20 31 14 45 7 9 2 5 10 3 0 0 0 0 0 1 0 0 0 0 0 0 0 0 0 0 0 0 0 0 0 0 0 1 0 0 0 0 0 0 0
1 22 17 12 3 1 2 1 1 1 0 0 0 0 0 0 1 0 0 0 0 0 0 0 0 0 0 0 0 0 2 0 0 0 0 0 0 0 0 0 0 0 0
3 2 2 1 0 1 0 2 1 0 0 0 1 1 0 0 0 0 0 0 0 0 0 0 0 0 1 1 1 1 2 1 0 0 0 0 0 0 0 0 0 0 0

GFSGL_con_sbcape_093.txt.gz
CAPE
226 425 460 472 483 562 770 961 1146 1187 1108 1280 1395 1497 1597 1672 1690 1860 1899 1756 1753 1666 1531 1428 1288 1305 1063 1198 1700 1823 1310 946 827 759 1111 1521 722 1051 1079 880 388 598 682
162 79 169 79 272 675 893 980 1173 1126 1144 1289 1424 1228 864 936 1184 947 852 649 731 732 732 882 697 506 618 1227 923 1110 1289 1198 858 301 102 698 319 260 136 470 569 253 581
0 36 266 222 351 502 1050 1104 1052 1096 1237 1412 1288 1061 718 536 450 278 79 41 26 118 66 9 0 80 283 427 592 791 1328 1346 1104 152 18 96 73 98 162 101 156 318 371
7 2 152 325 187 326 744 934 858 1197 1282 1359 1249 1009 624 251 0 0 0 0 0 0 0 0 0 0 0 15 152 313 327 533 1007 1012 479 73 61 484 245 282 315 213 523
0 16 77 345 338 351 649 805 1129 1165 1252 1181 1101 928 545 6 0 0 0 0 0 0 0 0 0 0 0 0 0 0 18 65 328 818 654 71 70 265 118 417 485 858 512
0 0 5 67 32 327 402 541 899 1083 1115 1067 983 751 427 0 0 0 0 16 0 0 0 0 0 0 0 0 0 0 0 132 164 619 984 256 126 108 159 281 373 573 822
0 0 0 12 49 55 229 305 556 1083 1294 1023 854 543 375 279 0 0 0 40 16 0 0 0 0 0 0 0 0 0 0 1 0 51 200 620 990 1009 598 375 477 994 763
0 0 0 0 0 141 123 83 281 514 686 824 707 475 297 165 0 0 0 6 30 0 0 0 0 0 0 0 0 0 0 0 17 98 7 165 727 1609 1361 1001 1003 822 393
0 0 0 0 0 1 100 189 188 71 91 201 291 329 209 301 0 0 0 0 0 0 0 0 0 0 0 0 0 0 0 0 25 34 0 21 87 148 595 240 438 495 733
7 5 1 0 0 0 0 39 186 129 119 19 3 3 3 20 0 0 0 0 0 0 0 0 0 0 0 0 0 0 1 12 54 27 5 0 0 1 1 195 418 669 785
9 3 2 7 1 0 0 0 0 0 0 0 0 0 5 0 0 0 0 0 0 0 0 0 0 0 0 0 0 0 5 7 1 6 9 11 6 8 9 47 586 986 756
17 16 11 17 12 3 1 0 0 0 0 0 0 0 0 0 0 0 0 0 0 0 0 0 0 0 0 0 0 0 0 0 2 6 9 8 8 4 3 61 254 413 351
28 48 28 22 17 12 12 5 1 0 0 0 0 0 0 0 0 0 0 0 0 0 0 0 0 0 0 0 0 0 0 4 6 11 5 6 26 92 70 65 79 88 194
35 37 26 31 26 30 18 17 10 4 0 0 0 0 0 0 0 0 0 0 0 0 0 0 0 0 0 0 0 1 5 9 10 15 5 21 8 8 22 11 9 7 66
23 23 28 27 23 17 21 30 24 20 4 0 0 0 0 0 0 0 0 0 0 0 0 0 0 0 0 0 2 5 5 6 20 5 4 7 12 20 9 10 5 77 110
12 17 20 23 23 19 19 18 0 1 0 0 0 0 0 0 0 0 0 0 0 0 0 0 0 0 0 0 6 7 6 5 5 4 5 6 5 17 19 29 91 95 112
20 19 24 18 29 31 38 50 46 14 0 0 0 0 0 0 0 0 0 0 0 0 2 7 0 0 1 2 12 9 16 7 2 2 5 32 29 21 15 61 78 121 128
21 8 18 19 21 26 31 33 27 26 28 18 0 0 0 0 0 0 0 0 6 1 27 5 0 9 6 7 17 11 21 28 4 4 16 25 10 7 16 11 20 87 51
17 19 21 22 22 17 21 24 24 23 23 15 20 0 0 0 0 0 0 26 32 42 9 23 17 12 17 15 35 57 19 24 7 6 12 58 6 4 4 11 1 7 12
10 3 5 12 13 17 20 18 22 25 21 16 18 20 0 0 1 0 0 5 52 56 44 22 35 23 31 5 56 45 8 3 7 6 54 19 12 11 5 10 48 13 81
13 16 3 15 16 13 15 26 30 26 17 24 23 17 0 1 6 7 7 14 51 35 30 29 34 31 12 28 67 8 18 13 34 120 119 37 16 28 31 64 58 92 104
10 8 8 8 8 7 6 6 11 32 26 22 26 7 0 1 26 29 34 35 32 23 28 30 19 12 33 42 5 41 60 66 180 151 41 22 26 35 38 86 66 40 35
4 5 5 4 14 5 8 13 23 28 26 36 40 2 1 8 41 33 32 25 26 18 13 16 7 34 11 15 113 173 220 226 158 40 19 15 7 37 65 108 98 72 81
3 3 10 1 20 31 27 26 25 13 17 23 27 17 20 18 22 15 10 6 10 6 5 37 15 0 63 191 177 139 192 152 74 76 30 8 20 50 114 98 40 8 1
10 6 6 11 28 32 54 17 13 20 14 10 29 6 24 22 16 9 1 13 12 16 8 3 5 36 84 43 98 149 0 0 84 4 45 37 89 78 9 2 2 1 0
6 5 3 2 2 4 4 3 2 11 23 27 27 14 1 0 0 0 0 0 0 0 1 3 16 6 26 113 34 1 2 0 0 0 0 0 2 4 4 0 0 0 0

GFSGL_con_sbcape_096.txt.gz
CAPE
87 453 691 781 841 922 1078 965 901 974 811 657 639 674 805 1027 1351 1817 2076 2170 2294 2522 2354 1918 1829 1738 2122 1380 921 1130 1387 1239 392 839 815 1457 1465 1321 737 1235 1071 992 799
117 108 206 542 811 881 1007 1124 1131 1131 962 775 839 903 930 950 1276 1442 1374 1292 1651 1882 2099 2021 1773 1730 1647 1797 2195 1603 1482 1508 1464 1392 875 837 475 919 844 322 848 588 817
102 240 143 438 689 925 1244 1417 1328 1187 1050 766 800 832 770 741 852 1044 988 1065 1239 1268 1354 1315 1291 1139 1183 968 898 925 1195 1368 1578 1556 776 639 344 378 232 246 175 492 629
3 43 51 107 473 782 799 982 825 659 593 1011 1082 757 538 394 472 520 368 302 321 366 436 242 110 65 121 216 316 375 411 510 625 908 775 869 939 652 375 112 127 633 621
0 0 1 32 72 590 452 161 390 185 452 108 1143 1465 674 417 366 261 69 37 134 23 0 0 0 0 0 0 0 0 0 4 3 5 99 428 740 615 335 184 100 324 851
0 0 0 0 4 445 508 853 885 782 1011 860 1263 1348 1085 505 0 0 33 170 129 80 157 10 0 0 0 0 0 0 0 0 0 0 0 199 1217 1181 469 424 198 150 521
0 0 0 0 0 88 486 570 882 1445 1608 1506 1614 1731 1348 1348 0 0 0 503 483 423 362 173 29 0 0 0 0 0 0 0 0 0 39 77 169 800 737 1153 730 464 294
2 0 0 0 0 11 223 654 767 1084 1605 1930 2013 1911 1895 1564 0 0 0 368 697 657 565 485 293 49 0 0 0 0 0 0 0 1 19 90 143 490 1106 1405 1792 1320 582
16 5 1 0 0 0 59 421 910 862 1117 1372 1487 1933 2116 2001 0 0 0 273 315 640 542 475 335 205 0 0 0 0 0 0 0 0 0 0 7 0 20 309 691 640 657
33 20 17 18 20 6 2 216 581 915 849 827 1118 1397 1326 1675 0 0 0 34 160 196 563 540 1 0 0 0 0 0 0 0 0 0 23 11 8 52 2 1 533 564 1306
33 17 15 23 29 21 24 18 209 518 760 734 655 803 978 1036 922 0 0 139 110 135 197 214 220 0 0 0 0 0 0 0 0 0 2 0 29 370 211 3 494 1224 1469
22 40 50 36 38 23 44 38 34 227 383 375 528 617 682 747 143 0 0 0 0 380 239 151 315 0 0 0 0 0 0 0 0 0 0 0 150 205 6 62 650 844 1145
61 48 48 44 20 33 36 69 48 91 164 141 174 279 338 348 467 0 0 0 0 16 127 36 0 0 0 0 0 0 0 0 0 2 9 87 204 54 77 309 503 726 507
28 33 27 41 33 52 30 8 26 34 50 43 66 155 231 219 153 177 1 0 0 0 0 0 0 0 0 0 0 0 0 0 0 51 71 169 146 197 241 185 218 559 396
31 36 31 34 42 26 20 19 14 15 28 54 44 51 165 215 113 3 20 30 6 0 0 0 0 0 0 0 0 0 0 5 5 72 112 44 70 104 134 209 323 260 290
25 24 29 29 40 52 52 42 0 0 0 0 0 4 39 8 0 0 0 0 0 0 0 0 0 0 0 0 0 0 0 0 54 193 26 3 43 95 73 154 195 295 316
20 24 23 21 30 35 39 34 29 7 0 0 0 0 0 0 0 0 0 0 0 0 0 0 0 0 0 0 0 0 0 6 56 199 30 4 30 77 34 190 287 239 380
25 10 24 29 32 35 39 41 42 33 35 8 0 0 0 0 0 0 0 0 0 0 0 0 0 0 0 0 0 1 9 29 221 108 19 35 73 41 86 252 250 260 221
18 14 16 19 19 17 23 23 27 37 38 31 32 0 0 0 0 0 0 9 5 7 4 5 7 0 0 0 2 7 12 98 73 13 32 64 24 93 167 91 164 49 65
12 4 5 15 15 17 21 28 20 21 21 18 29 29 15 0 0 0 0 12 23 25 18 22 4 1 2 2 7 18 85 35 25 35 38 32 85 75 18 26 106 81 126
13 20 1 10 14 14 14 18 23 24 18 19 17 16 6 0 8 14 17 20 28 26 37 18 6 6 14 19 29 23 212 37 144 111 80 62 145 72 47 77 60 59 228
10 8 8 11 9 10 12 17 24 25 28 30 26 11 0 13 8 18 15 23 20 23 28 43 40 51 15 28 27 43 95 80 177 247 103 260 152 64 61 94 89 119 166
5 4 6 4 5 3 3 7 12 28 36 33 31 23 2 22 26 19 30 19 23 29 24 52 18 4 57 47 109 79 54 254 238 167 247 160 110 82 128 125 121 110 98
3 3 1 46 24 13 5 7 8 4 17 24 45 20 19 30 28 23 30 26 33 34 28 32 30 38 42 66 68 83 293 348 106 221 181 150 80 12 160 156 102 1 1
5 9 48 86 25 20 23 20 18 18 15 21 24 39 32 33 48 27 31 39 33 30 29 38 54 1 6 61 98 305 20 39 186 102 124 112 100 138 82 5 2 0 0
7 6 8 8 6 10 31 36 36 23 14 63 43 19 14 10 40 46 29 43 50 38 8 4 48 47 104 314 204 0 0 0 0 1 160 181 24 10 7 1 0 0 0

GFSGL_con_sbcape_102.txt.gz
CAPE
42 112 117 119 188 242 606 484 693 451 1322 1782 2009 2339 2232 2116 2022 1790 1724 1078 827 593 1104 1715 2642 2750 2552 2373 2425 1922 1637 1295 1034 987 911 796 872 802 755 1100 836 808 704
47 62 91 146 283 309 323 304 105 22 0 0 58 1396 2085 1890 1468 378 471 849 873 785 1300 1809 2209 2635 2610 2502 2358 1790 1542 1314 990 778 786 844 1100 957 1006 977 1160 1005 1073
0 4 25 81 173 274 266 325 332 46 0 0 0 0 0 1669 1547 917 674 937 83 1246 1884 2187 2139 2164 1897 2037 2085 1862 1270 1337 854 506 560 838 993 991 796 785 769 609 753
11 7 13 10 12 50 110 221 422 72 0 0 0 0 14 469 1473 1628 1462 1377 1311 1590 2033 1809 1743 1937 1871 1900 2105 1470 1255 878 697 526 691 947 769 766 709 557 413 556 341
42 7 2 0 0 0 1 187 402 236 0 0 0 0 4 7 868 1258 1422 1568 1686 1446 1961 1686 1573 981 1635 1579 1196 631 235 175 81 9 0 0 46 376 457 366 286 364 175
72 34 22 29 6 0 0 0 368 67 0 49 7 6 14 21 1 40 0 1382 1337 1247 1347 890 0 0 0 0 0 0 0 0 0 0 0 0 0 0 0 290 342 247 133
42 49 51 43 47 41 21 0 20 140 61 0 0 29 2 57 5 0 0 999 1218 1142 936 741 56 20 0 0 0 0 0 0 0 14 7 2 4 0 3 0 0 206 181
20 50 58 59 26 21 22 37 35 139 199 42 0 0 2 61 0 0 0 0 1059 1053 924 938 667 320 256 173 72 0 0 38 0 0 0 0 0 27 178 138 39 5 97
15 42 44 21 40 39 31 20 31 73 154 245 178 56 21 160 0 0 0 0 0 863 1040 1257 1071 564 171 2 345 240 96 141 16 0 3 0 0 0 0 0 0 0 0
73 57 73 64 43 31 16 17 22 54 96 196 377 394 133 430 0 0 0 0 0 329 1061 1202 731 990 24 0 286 346 268 249 226 76 0 0 0 0 0 0 0 3 11
7 49 49 39 46 38 28 2 14 17 2 3 98 348 408 625 121 0 0 0 0 64 814 1063 879 19 0 0 100 581 430 314 25 0 0 0 0 0 0 0 0 1 25
29 12 41 52 32 46 52 13 0 11 0 0 8 83 437 431 259 0 0 0 0 0 446 670 659 448 0 0 0 36 87 0 0 0 0 0 0 0 0 324 352 414 326
26 18 10 75 56 18 33 54 6 5 2 0 0 12 217 591 574 1 0 0 0 0 225 18 75 101 0 0 0 0 0 0 0 0 0 0 0 0 424 200 118 199 105
6 38 43 29 39 42 56 21 58 55 4 0 0 1 56 437 459 18 0 0 0 0 0 1 4 0 0 0 0 0 0 0 0 0 0 0 0 5 173 77 201 83 396
11 19 26 11 11 29 18 5 10 20 33 23 14 25 27 346 0 0 38 29 6 0 25 233 147 98 66 68 28 10 0 0 0 0 0 0 65 295 211 167 233 187 188
20 15 24 28 36 54 29 20 0 0 0 0 0 0 0 0 0 0 0 0 164 25 4 91 210 282 271 209 168 20 0 0 0 0 0 140 184 272 114 175 257 216 83
16 22 27 16 24 24 16 12 11 1 0 0 0 0 0 0 0 0 0 0 0 0 2 60 205 221 183 67 2 11 0 1 0 27 65 396 441 191 62 73 118 120 101
13 12 12 27 20 22 18 16 15 15 16 22 0 0 0 0 0 0 0 0 0 0 28 62 42 91 128 138 57 7 0 0 0 21 225 500 411 127 95 103 141 48 94
15 12 12 14 18 15 9 16 20 19 22 18 19 1 0 0 0 0 0 0 0 5 166 143 190 157 95 0 0 0 0 0 0 94 516 489 257 89 66 109 101 65 31
9 4 7 14 14 17 14 13 12 16 28 21 18 1 0 0 0 0 0 0 0 0 13 5 0 0 0 0 0 0 0 0 0 227 458 283 120 107 73 60 14 24 6
4 5 2 8 8 10 8 8 14 15 14 27 16 3 0 0 0 0 0 0 0 0 4 6 0 0 0 0 0 0 0 2 110 434 357 204 137 74 89 102 62 10 35
3 4 5 5 6 8 8 11 15 17 18 14 1 0 0 0 1 2 0 0 0 0 0 0 0 0 0 1 0 0 0 1 550 340 224 177 140 128 146 115 41 15 0
1 2 2 2 3 1 5 14 13 21 21 22 21 4 1 3 25 4 8 4 12 1 0 0 0 0 0 0 51 40 0 13 395 356 189 121 148 128 111 65 58 0 0
3 0 36 0 1 4 6 10 13 6 15 23 17 23 4 2 16 4 9 6 3 0 0 0 0 0 0 22 12 16 3 0 146 230 205 172 220 101 15 78 19 0 0
8 5 3 8 0 3 5 7 9 11 10 19 10 15 18 14 8 3 6 8 4 1 1 0 0 3 3 11 0 0 0 0 96 164 141 150 102 22 14 0 0 0 0
5 5 4 3 3 10 4 2 1 3 9 8 14 17 2 6 6 0 5 0 1 1 4 6 4 2 1 0 1 0 0 0 0 0 116 67 23 2 0 0 0 0 0

GFSGL_con_sbcape_105.txt.gz
CAPE
0 0 0 0 0 0 66 32 0 0 0 0 0 0 0 0 0 0 0 0 13 581 441 52 7 3 0 72 702 934 992 700 892 489 398 205 568 544 764 521 580 629 494
0 0 0 0 0 0 0 0 8 0 0 0 0 0 0 0 0 0 12 1 358 51 2 0 27 110 1 0 6 792 1102 644 685 605 214 290 383 343 427 589 545 855 896
0 0 0 0 0 0 0 0 0 0 0 0 0 0 0 0 0 0 0 0 8 1 0 0 1 0 156 297 366 858 884 822 526 315 165 7 0 0 0 367 426 393 314
0 0 0 0 0 0 0 0 0 0 0 0 0 0 0 0 0 0 0 0 0 80 99 87 34 13 505 712 1036 1107 825 592 345 166 0 0 0 0 0 237 229 106 311
0 0 0 0 0 0 0 0 0 0 0 0 0 0 0 0 9 0 0 0 0 78 0 3 4 0 504 782 1262 1071 539 260 89 36 19 10 4 0 0 0 5 26 41
0 0 0 0 0 0 0 0 0 0 0 0 0 0 0 0 0 0 0 0 7 39 163 323 648 350 342 775 365 31 0 0 0 0 0 0 0 0 0 0 0 0 5
0 0 0 0 0 0 0 1 0 0 0 14 14 2 0 12 0 0 1 0 0 6 0 0 0 0 0 0 0 0 0 0 0 0 0 0 0 0 0 0 0 0 0
0 0 0 0 0 0 0 0 0 0 0 0 41 62 24 32 17 0 0 0 2 109 2 0 0 0 0 0 0 0 0 0 0 0 0 0 0 0 0 0 0 0 0
0 0 0 3 4 1 0 0 0 0 0 2 26 56 90 26 2 13 2 0 0 39 34 5 14 0 0 0 0 0 0 0 0 0 0 0 0 0 0 0 0 0 0
0 0 0 0 0 5 4 6 4 0 0 1 0 0 38 62 0 0 0 0 0 43 164 108 13 1 0 0 0 0 0 0 0 0 0 0 0 0 0 0 0 0 0
0 2 7 15 24 21 9 9 17 2 0 0 0 0 7 51 48 0 0 0 0 0 68 236 60 16 0 0 0 0 0 0 0 0 0 0 0 0 0 0 0 0 0
1 0 0 0 15 16 22 33 45 13 0 0 0 0 0 10 67 54 0 0 0 0 2 108 89 0 0 0 0 0 0 0 0 0 0 0 0 0 0 0 1 0 0
7 5 3 8 9 20 39 29 41 8 0 0 0 0 0 0 46 29 9 0 0 0 0 26 59 0 0 0 0 0 0 0 0 0 0 0 0 0 0 2 0 0 0
12 10 6 4 5 1 19 25 45 29 0 0 0 0 0 0 0 0 1 1 0 0 0 0 0 0 0 0 0 0 0 0 0 0 0 0 0 0 0 0 0 37 115
11 11 11 18 10 6 11 20 0 1 3 0 0 0 0 11 0 0 0 3 0 0 0 0 0 0 0 0 0 0 0 0 0 0 0 0 0 0 0 0 14 273 229
9 11 10 14 15 8 13 0 0 0 3 0 0 0 0 0 0 0 0 0 0 0 0 0 0 0 0 0 0 0 0 0 0 0 0 0 0 0 0 0 89 252 70
9 11 14 16 18 13 9 9 16 0 0 0 0 0 0 0 0 0 0 0 0 0 0 0 0 0 0 0 0 0 0 0 0 0 0 0 0 11 2 0 88 80 66
8 10 12 8 7 11 20 26 10 9 10 0 0 0 0 0 0 0 0 0 0 0 0 0 0 0 0 0 0 0 0 0 0 0 0 0 48 19 3 40 89 98 62
5 4 6 13 8 9 19 20 22 5 5 6 2 0 0 0 0 0 0 0 0 0 0 0 0 0 0 0 0 0 0 0 0 0 0 80 114 24 6 57 108 54 39
3 0 1 4 10 10 14 14 7 5 13 10 7 1 0 0 0 0 0 0 0 0 0 0 0 0 0 0 0 0 0 0 0 0 0 90 33 27 14 63 84 37 4
2 2 0 2 4 6 11 14 12 11 10 5 13 2 0 0 0 0 0 0 0 0 0 0 0 0 0 0 0 0 0 0 0 0 27 72 42 47 59 77 78 31 34
1 0 1 2 2 6 8 11 14 16 13 8 4 0 0 0 0 0 0 0 0 0 0 0 0 0 0 0 0 0 0 0 1 62 67 54 37 46 46 52 37 61 13
4 1 1 2 2 0 4 15 13 11 13 13 0 3 0 14 0 0 0 0 0 0 0 0 0 0 0 0 0 0 0 0 0 47 46 31 60 84 75 54 54 11 7
3 4 7 1 6 4 6 9 11 4 11 19 12 0 0 0 3 0 0 0 0 0 0 0 0 0 0 0 0 0 0 0 0 37 120 129 101 77 45 52 6 2 0
4 3 4 6 1 2 3 5 7 7 5 3 12 9 1 0 0 1 0 0 0 0 0 0 0 0 0 0 0 0 0 0 0 53 93 145 108 13 12 12 0 0 0
4 5 4 3 3 3 2 2 1 3 0 6 3 4 1 0 0 0 1 2 0 0 0 0 0 0 0 0 0 0 0 0 0 0 1 60 15 0 0 0 0 0 0

GFSGL_con_sbcape_108.txt.gz
CAPE
0 0 0 0 0 0 0 0 0 0 0 0 0 0 0 0 0 0 0 0 0 0 4 47 122 13 31 0 4 10 57 5 97 239 39 91 89 57 111 215 205 265 337
0 0 0 0 0 0 0 0 0 0 0 0 0 0 0 0 0 0 0 3 0 0 0 1 138 33 0 0 0 1 0 1 53 157 46 144 157 113 158 132 159 269 413
0 0 0 0 0 0 0 0 0 0 0 0 0 0 0 0 0 0 0 0 0 0 92 150 61 24 0 0 0 1 2 6 20 137 173 21 40 0 0 0 0 18 42
0 0 0 0 0 0 0 0 0 0 0 0 0 0 0 0 0 0 0 0 0 0 0 1 31 32 17 0 2 0 1 31 222 165 72 0 0 0 0 0 0 0 30
0 0 0 0 0 0 0 0 0 0 0 0 0 0 0 0 0 0 0 0 0 0 0 1 0 32 32 0 14 25 42 144 160 109 24 0 0 0 0 0 0 0 0
0 0 0 0 0 0 0 0 0 0 0 0 0 0 0 0 17 4 0 0 0 0 0 0 0 82 21 0 125 392 500 157 31 0 0 0 0 0 0 0 0 0 0
0 0 0 0 0 0 0 0 0 0 0 0 0 0 14 17 27 3 0 0 0 0 0 0 2 82 36 68 3 129 16 0 0 0 0 0 0 0 0 0 0 0 0
0 0 0 0 0 0 0 0 0 0 0 0 0 0 2 11 15 5 0 0 0 0 0 1 13 99 141 121 0 0 0 0 0 0 0 0 0 0 0 0 0 0 0
0 0 0 0 0 0 0 0 0 0 0 0 0 0 0 5 42 24 0 0 0 0 0 36 0 0 0 0 0 0 0 0 0 0 0 0 0 0 0 0 0 0 0
0 0 0 0 0 0 0 0 3 1 9 16 6 7 22 0 0 5 0 0 0 0 0 7 7 0 0 0 0 0 0 0 0 0 0 0 0 0 0 0 0 0 0
0 0 0 2 5 5 3 2 0 1 11 24 9 0 1 0 0 4 23 0 0 0 0 15 0 0 0 0 0 0 0 0 0 0 0 0 0 0 0 0 0 0 0
0 3 2 1 6 8 3 8 2 0 21 21 0 0 0 0 0 2 32 2 0 0 0 55 7 0 0 0 0 0 0 0 0 0 0 0 0 0 0 0 0 0 0
3 3 3 4 5 5 13 5 4 17 33 23 0 0 0 0 0 33 14 0 1 0 0 5 22 0 0 0 0 0 0 0 0 0 0 0 0 0 0 0 0 0 0
4 3 2 5 6 5 10 9 8 10 12 12 0 0 0 0 1 0 27 6 1 0 0 0 0 0 0 0 0 0 0 0 0 0 0 0 0 0 0 0 0 0 9
5 5 4 7 7 6 11 13 10 23 34 27 2 0 0 0 0 0 0 2 1 0 0 0 0 0 0 0 0 0 0 0 0 0 0 0 0 0 0 0 0 0 224
7 7 8 11 11 11 19 14 4 0 4 0 0 4 0 0 0 0 0 0 0 0 0 0 0 0 0 0 0 0 0 0 0 0 0 0 0 0 0 0 0 22 199
9 9 7 9 13 11 14 16 10 8 0 0 0 0 0 0 0 0 0 0 0 1 0 0 0 0 0 0 0 0 0 0 0 0 0 0 0 0 0 0 3 48 101
5 5 5 5 6 11 11 8 19 12 6 0 0 0 0 0 0 0 0 0 0 0 0 0 0 0 0 0 0 0 0 0 0 0 0 0 0 0 0 0 3 38 63
4 3 3 4 5 9 10 9 14 10 10 2 0 0 0 0 0 0 0 0 0 0 0 0 0 0 0 0 0 0 0 0 0 0 0 0 0 0 0 0 3 1 5
3 1 0 2 2 6 8 8 11 18 6 2 5 3 0 0 0 0 0 0 0 0 0 0 0 0 0 0 0 0 0 0 0 0 0 0 0 0 0 0 11 7 0
2 1 0 0 2 3 6 14 15 10 4 4 2 0 0 0 0 0 0 0 0 0 0 0 0 0 0 0 0 0 0 0 0 0 0 0 0 0 1 18 23 70 45
1 2 1 2 1 3 8 12 13 13 9 5 0 0 0 0 0 0 0 0 0 0 0 0 0 0 0 0 0 0 0 0 0 0 0 0 0 1 20 16 12 25 19
3 3 1 6 5 1 7 11 13 9 12 2 3 2 0 0 0 0 0 0 0 0 0 0 0 0 0 0 0 0 0 0 0 0 0 0 0 16 24 40 45 20 34
4 5 5 2 3 6 6 9 9 1 6 12 0 0 0 2 1 0 0 0 0 0 0 0 0 0 0 0 0 0 0 0 0 0 14 18 36 25 6 21 34 4 0
5 4 4 4 5 1 1 4 4 1 0 3 0 0 0 0 0 0 0 0 0 0 0 0 0 0 0 0 0 0 0 0 0 0 18 40 58 59 17 8 0 0 0
6 5 5 5 4 4 4 4 1 0 0 0 0 0 0 0 0 0 0 0 0 0 0 0 0 0 0 0 0 0 0 0 0 0 0 1 25 16 0 1 0 0 0

GFSGL_con_sbcape_111.txt.gz
CAPE
0 0 0 0 0 0 0 0 0 0 0 0 0 0 0 0 0 0 0 0 0 0 0 0 0 0 0 0 24 49 91 23 26 0 1 1 28 42 38 8 0 7 3
0 0 0 0 0 0 0 0 0 0 0 0 0 0 0 0 0 0 0 0 0 0 0 0 0 0 3 12 1 0 0 0 2 2 0 1 6 25 7 4 7 25 35
0 0 0 0 0 0 0 0 0 0 0 0 0 0 0 0 0 0 0 0 0 0 0 0 0 93 83 0 0 0 0 0 0 0 0 0 0 0 7 0 0 0 0
0 0 0 0 0 0 0 0 0 0 0 0 0 0 0 0 0 0 0 0 0 0 0 0 0 0 15 2 0 0 0 0 0 0 0 6 12 1 0 0 0 0 0
0 0 0 0 0 0 0 0 0 0 0 0 0 0 0 0 0 0 0 0 0 0 0 0 0 0 0 0 18 41 21 0 2 4 5 15 0 0 0 0 0 0 0
0 0 0 0 0 0 0 0 0 0 0 0 0 0 0 0 8 8 8 10 0 0 0 0 0 0 0 0 0 0 0 0 4 7 5 61 31 0 0 0 0 0 0
0 0 0 0 0 0 0 0 0 0 0 0 0 0 0 0 6 16 18 0 1 4 13 1 3 6 1 0 0 0 0 0 0 70 79 1 0 0 0 0 0 0 0
0 0 0 0 0 0 0 0 0 0 0 0 0 0 0 0 3 7 0 0 0 0 0 1 3 1 1 1 1 4 11 87 0 14 3 0 0 0 0 0 0 0 0
0 0 0 0 0 0 0 0 0 0 0 0 0 0 0 0 0 0 0 0 0 0 0 5 1 13 2 0 0 7 46 10 0 0 0 0 0 0 0 0 0 0 0
0 0 0 0 0 0 0 0 2 3 0 1 4 0 1 0 0 0 0 0 0 0 17 0 4 0 1 5 4 0 0 0 0 0 0 0 0 0 0 0 0 0 0
0 0 0 0 1 2 0 1 0 5 6 6 0 1 22 5 0 0 0 0 13 26 5 13 27 8 1 0 0 0 0 0 0 0 0 0 0 0 0 0 0 0 0
0 0 1 1 2 4 3 4 4 5 6 0 0 0 9 0 0 0 0 0 22 5 1 5 32 0 0 0 0 0 0 0 0 0 0 0 0 0 0 0 0 0 0
1 2 5 6 3 2 3 5 6 8 11 5 15 18 9 0 0 0 0 0 1 0 0 5 0 0 0 0 0 0 0 0 0 0 0 0 0 0 0 0 0 0 0
5 6 4 4 2 3 4 4 5 8 10 10 13 26 2 0 0 0 0 1 1 0 0 1 0 0 0 0 0 0 0 0 0 0 0 0 0 0 0 0 0 0 0
7 5 5 5 6 5 5 5 8 9 15 19 24 4 0 0 0 0 0 32 5 0 0 0 0 0 0 0 0 0 0 0 0 0 0 0 0 0 0 0 0 0 2
5 6 6 8 7 9 9 8 1 2 0 0 0 0 0 0 0 0 0 0 0 1 0 0 0 0 0 0 0 0 0 0 0 0 0 0 0 0 0 0 0 0 27
7 6 4 7 7 7 9 11 8 9 0 0 0 0 0 0 0 0 0 0 0 1 1 0 0 0 0 0 0 0 0 0 0 0 0 0 0 0 0 0 0 0 35
4 5 3 2 3 4 6 8 11 12 9 5 0 0 0 0 0 0 0 0 0 0 2 0 0 0 0 0 0 0 0 0 0 0 0 0 0 0 0 0 0 0 0
3 2 2 2 2 4 6 7 8 14 10 13 0 0 0 0 0 0 0 0 0 0 1 0 0 0 0 0 0 0 0 0 0 0 0 0 0 0 0 0 0 0 1
3 1 0 1 1 2 4 6 12 12 11 7 2 0 0 0 0 0 0 0 0 0 0 0 0 0 0 0 0 0 0 0 0 0 0 0 0 0 0 0 0 0 0
3 1 0 7 1 2 7 10 12 10 6 1 7 0 0 0 0 0 0 0 0 0 0 0 0 0 0 0 0 0 0 0 0 0 0 0 0 0 0 0 0 0 0
2 3 4 6 7 7 8 9 10 10 5 1 1 0 0 0 0 0 0 0 0 0 0 0 0 0 0 0 0 0 0 0 0 0 0 0 0 0 0 0 0 0 0
5 4 4 4 6 3 5 9 11 7 4 0 0 0 0 0 0 0 0 0 0 0 0 0 0 0 0 0 0 0 0 0 0 0 0 0 0 0 0 0 0 1 2
5 6 5 4 6 3 7 10 8 3 0 0 0 0 0 0 0 0 0 0 0 0 0 0 0 0 0 0 0 0 0 0 0 0 0 0 0 0 9 1 1 13 19
5 5 5 5 5 3 1 3 0 0 0 0 0 0 0 0 0 0 0 0 0 0 0 0 0 0 0 0 0 0 0 0 0 0 0 0 0 16 9 0 0 0 0
4 5 5 4 4 4 3 3 2 0 0 0 0 0 0 0 0 0 0 0 0 0 0 0 0 0 0 0 0 0 0 0 0 0 0 0 0 0 0 0 0 1 0

GFSGL_con_sbcape_114.txt.gz
CAPE
0 0 0 0 0 0 0 0 0 0 0 0 0 0 0 0 0 0 0 0 0 0 0 0 0 0 5 8 9 21 14 48 36 5 52 6 0 0 2 18 30 49 64
0 0 0 0 0 0 0 0 0 0 0 0 0 0 0 0 0 0 0 0 0 0 0 0 0 0 37 96 48 11 61 138 113 32 25 0 0 0 0 19 28 50 64
0 0 0 0 0 0 0 0 0 0 0 0 0 0 0 0 0 0 0 0 0 0 0 0 0 0 0 51 106 57 77 114 107 88 78 10 32 8 4 22 0 0 3
0 0 0 0 0 0 0 0 0 0 0 0 0 0 0 0 0 0 0 0 0 0 0 0 0 0 0 0 11 61 53 4 2 18 6 21 16 11 0 30 0 0 2
0 0 0 0 0 0 0 0 0 0 0 0 0 0 0 0 0 0 0 0 3 5 10 1 9 1 0 0 1 45 30 27 15 7 7 7 15 6 2 2 8 1 0
0 0 0 0 0 0 0 0 0 0 0 0 0 0 0 0 0 0 0 4 20 30 23 15 21 0 0 0 0 0 24 49 13 14 16 7 7 37 0 0 2 0 0
0 0 0 0 0 0 0 0 0 0 0 0 0 0 0 0 0 0 0 1 19 30 26 17 2 6 8 20 4 0 0 0 0 23 29 14 51 23 0 0 0 0 0
0 0 0 0 0 0 0 0 0 0 0 0 0 0 0 0 0 0 0 0 12 4 7 12 16 23 53 38 16 11 10 7 2 2 17 24 53 0 0 0 0 0 0
0 0 0 0 0 0 0 0 0 0 0 0 0 0 4 5 0 0 0 0 0 0 0 0 16 58 22 0 1 17 19 12 3 0 0 13 0 0 0 0 0 0 0
0 0 0 0 0 0 0 0 0 0 0 1 0 0 0 13 1 0 0 0 0 0 0 7 17 11 33 0 0 1 3 4 4 1 0 1 0 0 0 0 0 0 0
0 0 0 0 0 0 0 0 2 0 4 3 0 0 7 0 0 1 0 0 9 16 46 44 70 35 0 1 1 3 6 3 0 0 0 2 0 0 0 0 0 0 0
0 0 0 1 1 7 6 4 3 4 3 4 6 9 0 0 0 0 0 0 0 26 56 69 9 6 1 0 0 1 1 0 0 1 0 0 0 0 0 0 0 0 0
3 3 4 7 8 7 8 4 4 5 7 9 11 8 4 15 23 0 0 0 0 1 0 2 0 0 1 0 0 0 0 7 2 0 0 0 0 0 0 0 0 0 0
5 4 5 6 6 7 8 6 5 5 5 9 11 13 8 4 14 0 0 0 0 1 2 0 0 0 0 0 0 0 0 0 0 0 0 0 0 0 0 0 0 0 0
3 7 6 7 7 6 6 5 6 4 7 12 16 23 13 14 0 0 0 0 11 13 11 3 2 2 0 0 0 0 0 7 11 0 0 0 0 0 0 0 0 0 1
8 7 6 6 5 6 8 6 2 0 0 0 0 1 3 0 0 0 0 0 1 1 1 3 6 2 0 0 0 0 11 0 0 0 0 0 0 0 0 0 0 1 9
6 5 4 5 5 5 5 6 5 4 0 2 0 0 0 0 0 0 0 0 1 1 2 0 20 9 0 0 0 0 0 0 0 0 0 0 0 0 0 0 0 0 91
5 7 4 2 3 3 3 5 7 7 15 7 1 0 0 0 0 0 0 0 1 0 2 7 3 4 9 0 0 0 0 0 0 0 0 0 0 0 0 0 0 3 70
5 3 3 3 1 2 3 5 6 15 12 8 10 0 0 0 0 0 0 0 2 1 1 6 1 0 6 10 1 0 0 0 0 0 0 0 0 0 0 0 0 0 0
4 2 1 1 4 10 3 5 10 13 12 7 3 0 0 0 0 0 0 0 1 2 2 3 0 2 13 3 0 0 0 0 0 0 0 0 0 0 0 0 0 0 1
4 2 0 5 9 9 8 8 8 11 5 4 2 0 0 0 0 0 0 0 0 1 1 0 0 0 0 0 0 0 0 0 0 0 0 0 0 0 0 0 7 0 14
4 5 4 6 7 6 10 11 4 7 5 1 0 0 0 0 0 0 0 0 0 0 0 0 0 0 0 0 0 0 0 0 0 0 0 0 0 4 4 16 7 31 16
4 4 5 4 7 2 8 9 7 5 6 0 0 0 0 0 0 0 0 0 0 0 0 0 0 0 0 0 0 0 0 0 0 0 0 0 3 23 44 87 114 55 23
5 5 6 4 4 3 16 9 2 0 1 1 0 0 0 0 0 0 0 0 0 0 0 0 0 0 0 0 0 0 0 0 0 0 1 15 40 13 1 1 2 2 5
7 7 6 6 5 3 2 6 1 0 0 0 0 0 0 0 0 0 0 0 0 0 0 0 0 0 0 0 0 0 0 0 0 0 12 7 41 54 71 71 35 0 0
5 5 5 5 5 4 3 4 3 3 4 1 0 0 0 0 0 0 0 0 0 0 0 0 0 0 0 0 0 0 0 0 0 0 0 0 0 7 9 7 0 0 1

GFSGL_con_sbcape_117.txt.gz
CAPE
0 0 0 0 0 0 0 0 5 25 77 110 106 41 15 0 0 3 0 0 1 11 29 77 85 88 0 0 28 47 61 187 81 22 130 407 426 386 393 381 414 639 563
0 0 0 0 0 0 0 0 0 0 0 0 1 2 14 17 23 29 1 0 0 0 0 15 26 28 138 92 29 70 49 80 219 107 80 240 490 573 482 522 293 140 537
0 0 0 0 0 0 0 0 0 0 0 0 0 0 4 24 41 37 19 0 0 1 15 14 0 2 59 42 70 0 2 36 268 144 82 218 408 489 645 588 289 263 571
0 0 0 0 0 0 0 0 0 0 0 0 0 0 0 0 6 19 29 27 27 13 59 72 28 23 7 6 7 0 2 18 42 33 39 193 511 569 288 386 252 115 138
0 0 0 0 0 0 0 0 0 0 0 0 0 0 0 0 0 0 0 16 91 90 134 61 132 86 17 15 2 13 39 14 26 33 62 64 206 172 127 153 77 143 210
0 0 0 0 0 0 0 0 0 0 0 0 0 0 0 0 0 0 0 8 44 117 180 167 139 66 46 22 2 0 0 28 82 50 56 50 28 169 120 60 202 127 279
0 0 0 0 0 0 0 0 0 0 0 0 0 0 0 0 0 0 0 0 19 126 159 198 147 82 46 45 12 0 0 0 0 114 143 86 79 46 151 100 303 376 431
0 0 0 0 0 0 0 0 0 1 3 3 1 1 2 1 0 0 0 0 9 55 120 123 166 147 50 37 56 64 63 78 85 49 93 96 75 100 95 142 86 108 0
0 0 0 0 0 0 0 1 5 8 7 6 5 4 2 7 0 0 0 13 18 35 74 90 52 54 17 1 63 83 99 93 44 0 12 16 0 0 46 0 0 0 0
0 0 0 0 1 4 7 9 9 6 5 8 4 3 5 6 0 0 0 13 24 29 31 27 1 0 0 0 42 128 109 88 6 21 1 1 1 4 0 0 0 0 0
0 0 0 4 7 5 11 7 8 8 7 7 9 8 6 3 5 0 0 17 21 29 28 19 28 7 0 0 0 83 45 3 1 48 59 46 56 39 2 0 0 0 0
2 3 5 5 5 11 10 11 12 12 10 10 9 5 2 3 1 0 0 0 0 27 19 31 79 46 16 0 0 0 1 0 2 7 16 40 40 4 5 0 0 12 52
3 2 8 10 7 10 11 11 11 11 11 7 7 6 4 4 7 3 0 0 0 3 20 15 18 3 0 0 0 1 0 3 4 16 18 11 3 0 0 0 3 0 11
8 6 8 9 10 10 7 7 9 9 8 7 8 8 8 13 20 6 69 54 2 1 2 7 19 0 0 0 0 4 10 5 21 99 176 13 0 0 0 25 37 6 55
7 9 9 8 7 7 8 9 9 9 9 15 17 22 25 16 6 0 0 4 63 79 62 101 91 14 4 51 89 53 5 12 2 0 0 0 0 0 12 22 91 160 186
11 7 9 13 8 8 7 5 0 2 2 1 0 4 18 4 0 0 0 1 0 0 45 69 13 36 56 149 122 129 74 62 75 92 55 21 6 23 14 35 138 320 341
7 8 8 9 7 4 5 5 4 4 4 2 0 0 0 0 0 0 0 0 1 0 37 44 17 18 72 105 166 82 54 142 116 81 31 58 40 39 30 117 299 377 307
6 7 9 5 4 4 4 4 6 11 17 15 4 0 0 0 0 0 0 1 6 7 36 10 10 31 108 139 135 195 189 173 199 232 215 123 132 103 112 265 339 306 343
8 6 5 5 4 4 9 8 10 14 16 15 6 3 0 0 0 0 0 9 3 5 3 2 1 71 109 121 225 237 253 288 276 278 190 202 164 159 256 376 287 0 43
4 2 3 4 6 17 12 12 11 13 15 7 6 7 0 0 0 1 4 0 0 3 5 3 0 82 124 137 178 172 161 223 273 259 240 135 115 79 112 311 334 262 278
4 4 0 4 16 12 16 11 10 7 3 8 3 1 0 14 13 6 1 0 0 2 5 1 0 96 120 185 199 194 240 237 210 127 65 23 0 5 77 134 293 297 370
5 5 6 6 12 18 15 18 14 13 16 4 4 2 0 11 11 1 0 0 0 2 1 1 0 64 155 180 234 252 213 148 26 19 65 156 305 308 332 400 402 359 375
7 6 5 6 5 1 18 19 11 6 3 0 0 2 0 1 24 0 0 1 1 0 0 0 0 25 71 100 111 127 118 18 25 121 233 204 156 148 90 52 89 153 238
8 6 6 5 4 2 7 19 14 1 0 0 0 0 17 51 55 2 0 0 0 0 0 0 0 4 50 54 7 0 0 0 11 67 0 0 0 0 0 23 107 72 3
9 8 7 7 6 6 6 6 6 9 9 8 4 2 5 23 36 4 0 0 0 0 0 0 0 0 13 0 0 0 0 0 0 0 0 0 0 0 0 0 7 19 4
8 8 7 7 6 6 5 7 9 6 6 5 7 5 5 28 27 0 0 0 0 0 0 0 0 0 0 0 0 0 0 0 0 0 0 0 0 0 0 5 8 7 2

GFSGL_con_sbcape_123.txt.gz
CAPE
2 8 7 16 16 33 77 109 128 221 345 384 382 298 356 967 1193 1214 1103 736 602 583 425 405 442 428 134 106 97 87 101 92 66 23 30 51 243 189 113 630 387 734 411
0 0 0 0 1 7 42 55 90 142 175 199 194 202 215 339 902 1109 803 658 671 567 514 502 415 347 454 394 207 218 126 175 159 148 112 31 116 336 412 789 424 150 422
0 0 0 0 0 0 0 0 1 3 2 1 1 26 83 202 459 645 755 715 608 626 606 633 467 394 371 340 370 305 275 278 271 195 148 84 22 22 71 161 156 654 594
0 0 0 0 0 0 0 0 0 0 0 0 0 0 0 0 27 138 187 439 621 652 555 670 701 524 478 499 402 346 336 319 283 216 161 126 96 73 111 164 156 331 217
0 0 0 0 0 0 0 0 0 0 0 0 0 0 0 0 2 25 129 188 285 301 347 428 437 391 159 192 273 320 309 332 250 207 133 101 74 74 111 25 115 119 422
0 0 0 0 0 0 0 0 0 0 0 0 0 0 0 0 0 0 0 0 0 0 0 1 76 8 8 0 10 0 30 247 240 147 148 140 173 64 80 64 4 88 77
0 0 0 0 0 0 0 0 0 4 12 0 2 1 10 19 0 0 0 0 1 28 46 42 29 1 6 19 17 2 6 0 0 113 131 123 148 142 110 110 50 209 211
0 0 0 0 0 0 0 0 8 9 25 26 19 18 41 30 0 0 0 0 5 28 37 43 50 49 49 34 54 71 90 146 65 3 17 96 146 159 181 116 120 147 188
0 0 0 0 0 0 0 8 23 28 17 9 12 17 27 27 0 0 0 0 2 3 12 20 19 7 1 0 9 56 89 116 27 7 10 10 9 18 16 59 12 17 17
0 0 0 0 0 5 13 9 6 14 10 7 0 0 0 0 0 0 0 1 3 7 11 9 0 0 0 0 28 73 124 90 67 46 2 0 0 6 0 3 25 44 11
0 0 2 7 9 3 5 3 2 1 3 2 3 3 7 10 10 0 0 8 11 11 12 7 1 2 0 0 0 49 89 44 27 18 9 8 14 42 91 118 74 41 83
4 6 8 7 7 1 4 5 7 13 13 8 8 7 4 5 1 0 0 0 0 10 12 15 16 1 0 0 0 0 0 0 14 30 47 63 84 78 62 137 166 134 145
6 7 7 6 8 8 7 9 14 13 13 8 8 7 7 4 9 1 0 0 0 0 13 7 0 0 0 0 0 0 0 62 89 99 107 83 72 65 173 245 277 262 158
3 9 10 12 11 8 7 10 10 7 8 9 10 14 15 15 12 6 31 16 0 0 2 7 4 0 0 4 3 10 33 71 34 10 22 37 66 78 144 67 368 318 175
10 11 13 8 10 6 8 8 7 4 5 11 12 15 16 16 13 1 0 3 1 1 1 6 5 4 61 47 45 45 10 6 4 3 4 4 9 50 93 264 382 157 45
9 7 9 11 8 6 5 4 0 0 0 0 0 1 5 3 0 0 0 0 0 0 1 5 25 48 15 54 9 24 24 17 12 21 0 7 14 15 56 121 72 48 26
10 8 7 8 6 4 5 11 8 3 0 0 0 0 0 0 0 0 0 0 0 0 7 45 61 30 38 19 27 20 22 6 23 7 5 13 37 70 3 27 36 139 187
9 7 10 7 6 4 7 10 17 27 23 13 3 0 0 0 0 0 0 0 2 0 9 20 8 31 23 65 16 6 43 47 15 85 116 201 285 115 114 163 194 0 89
8 11 9 6 3 5 7 24 17 13 7 5 2 0 0 0 0 0 0 2 0 4 39 5 38 37 60 90 79 45 57 43 134 158 281 420 287 132 123 168 81 36 316
10 4 4 6 4 19 37 16 7 2 5 11 8 12 8 8 22 47 21 14 65 11 3 14 29 27 105 70 53 151 255 453 381 296 504 599 562 386 356 484 395 374 651
12 10 0 10 21 36 44 21 25 25 3 5 17 15 0 0 14 53 52 13 10 0 0 11 25 2 44 5 163 121 261 293 519 485 515 609 636 558 564 314 363 285 487
15 8 10 9 24 18 7 8 38 7 2 4 4 8 0 23 51 48 35 31 4 0 1 7 2 0 65 113 139 77 471 414 522 480 350 290 296 209 305 303 485 525 437
12 8 7 6 5 0 8 11 5 4 3 7 45 6 0 30 61 22 17 0 0 2 0 0 1 29 240 311 161 221 224 457 637 491 437 252 189 253 199 308 182 535 577
8 9 7 5 5 4 4 4 7 1 0 9 1 0 5 32 29 35 7 1 0 0 0 0 47 108 136 225 180 307 392 393 622 365 334 58 59 21 26 71 79 185 467
13 10 8 7 6 6 4 3 3 3 4 6 8 3 5 6 5 7 5 3 0 2 0 11 105 255 324 220 185 35 0 0 0 0 9 0 0 2 2 28 40 32 203
9 8 8 8 7 7 5 6 8 7 8 9 9 6 6 5 4 3 2 1 1 23 58 127 231 294 271 52 0 0 0 0 0 0 10 14 8 11 0 1 6 10 33